Change the Weather History Date:

Wednesday, January 9, 2013

  Actual Average Record
Temperature  
Mean Temperature 42 °F -  
Max Temperature 45 °F 46 °F 78 °F (2009)
Min Temperature 39 °F 26 °F 12 °F (1999)
Degree Days  
Heating Degree Days 23    
Moisture  
Dew Point 40 °F    
Average Humidity 90    
Maximum Humidity 100    
Minimum Humidity 70    
Precipitation  
Precipitation 0.36 in - - ()
Sea Level Pressure  
Sea Level Pressure 30.18 in    
Wind  
Wind Speed 16 mph (NE)    
Max Wind Speed 25 mph    
Max Gust Speed 31 mph    
Visibility 4 miles    
Events Rain    
Averages and records for this station are not official NWS values.
T = Trace of Precipitation, MM = Missing Value Source: NWS Daily Summary

Daily Weather History Graph

Daily Weather History Graph

Search for Another Location

Airport or City:

Trip Planner

Search our weather history database for the weather conditions in past years. The results will help you decide how hot, cold, wet, or windy it might be!

Date:

Astronomy

Jan. 09, 2013 Rise Set
Actual Time 7:44 AM CST 5:42 PM CST
Civil Twilight 7:16 AM CST 6:10 PM CST
Nautical Twilight 6:45 AM CST 6:41 PM CST
Astronomical Twilight 6:15 AM CST 7:12 PM CST
Moon 5:25 AM CST (1/9) 3:46 PM CST (1/9)
Length of Visible Light 10h 53m
Length of Day
9h 57m
Waning Crescent, 6% of the Moon is Illuminated
Jan 9
Waning Crescent
Jan 11
New
Jan 18
First Quarter
Jan 26
Full
Feb 3
Last Quarter

Hourly Weather History & Observations

Time (CST) Temp. Windchill Dew Point Humidity Pressure Visibility Wind Dir Wind Speed Gust Speed Precip Events Conditions
12:53 AM 43.0 °F 38.2 °F 39.0 °F 86% 30.19 in 6.0 mi North 8.1 mph - N/A   Overcast
1:53 AM 41.0 °F 35.2 °F 37.9 °F 89% 30.18 in 5.0 mi North 9.2 mph - N/A   Clear
2:53 AM 41.0 °F 35.2 °F 37.9 °F 89% 30.16 in 5.0 mi NNE 9.2 mph - N/A   Clear
3:53 AM 39.0 °F 32.8 °F 37.0 °F 93% 30.19 in 5.0 mi North 9.2 mph - N/A   Clear
4:53 AM 39.0 °F 30.6 °F 35.1 °F 86% 30.20 in 9.0 mi North 15.0 mph - N/A   Clear
5:53 AM 39.0 °F 31.0 °F 33.1 °F 79% 30.22 in 10.0 mi NNE 13.8 mph - N/A   Clear
6:53 AM 39.9 °F 33.4 °F 33.1 °F 77% 30.25 in 10.0 mi North 10.4 mph - N/A   Overcast
7:53 AM 41.0 °F 32.5 °F 33.1 °F 73% 30.27 in 10.0 mi NNE 17.3 mph - N/A   Overcast
8:38 AM 41.0 °F 32.2 °F 32.0 °F 70% 30.27 in 9.0 mi NNE 18.4 mph - N/A   Overcast
8:53 AM 41.0 °F 32.8 °F 33.1 °F 73% 30.30 in 9.0 mi NNE 16.1 mph - N/A   Overcast
9:53 AM 43.0 °F 36.4 °F 34.0 °F 71% 30.32 in 9.0 mi NE 12.7 mph - N/A   Overcast
10:53 AM 44.1 °F 35.9 °F 35.1 °F 71% 30.31 in 9.0 mi NE 19.6 mph - N/A   Overcast
11:53 AM 44.6 °F 36.6 °F 35.6 °F 71% 30.27 in 9.0 mi NE 19.6 mph - N/A   Overcast
12:53 PM 44.1 °F 35.2 °F 39.0 °F 82% 30.24 in 3.0 mi NE 23.0 mph 28.8 mph 0.00 in Rain Light Rain
1:01 PM 44.6 °F 36.1 °F 39.2 °F 81% 30.22 in 2.0 mi NE 21.9 mph 28.8 mph 0.00 in Rain Light Rain
1:11 PM 44.6 °F 35.9 °F 41.0 °F 87% 30.21 in 1.5 mi NE 23.0 mph - 0.00 in Rain Light Rain
1:53 PM 44.1 °F 34.8 °F 43.0 °F 96% 30.20 in 1.8 mi NE 25.3 mph 31.1 mph 0.01 in Rain Light Rain
2:22 PM 44.6 °F 36.1 °F 42.8 °F 93% 30.19 in 1.5 mi NE 21.9 mph - 0.00 in Rain Light Rain
2:50 PM 42.8 °F 34.8 °F 41.0 °F 93% 30.20 in 1.2 mi NE 17.3 mph - 0.00 in Rain Light Rain
2:53 PM 43.0 °F 35.1 °F 41.0 °F 93% 30.21 in 1.5 mi NE 17.3 mph - 0.01 in Rain Light Rain
3:19 PM 42.8 °F 35.1 °F 41.0 °F 93% 30.19 in 2.5 mi NE 16.1 mph - 0.00 in Rain Light Rain
3:31 PM 42.8 °F 34.8 °F 42.8 °F 100% 30.19 in 1.5 mi NE 17.3 mph - 0.01 in Rain Light Rain
3:42 PM 44.6 °F 36.9 °F 42.8 °F 93% 30.18 in 2.5 mi NE 18.4 mph - 0.01 in Rain Light Rain
3:51 PM 44.6 °F 36.9 °F 42.8 °F 93% 30.17 in 3.0 mi NE 18.4 mph - 0.01 in Rain Light Rain
3:53 PM 44.1 °F 35.7 °F 42.1 °F 93% 30.17 in 4.0 mi NE 20.7 mph - 0.01 in   Overcast
4:04 PM 44.6 °F 36.6 °F 42.8 °F 93% 30.16 in 3.0 mi NE 19.6 mph 27.6 mph N/A   Overcast
4:14 PM 44.6 °F 36.9 °F 42.8 °F 93% 30.17 in 2.5 mi NE 18.4 mph - N/A   Overcast
4:36 PM 44.6 °F 37.4 °F 42.8 °F 93% 30.18 in 3.0 mi NE 16.1 mph - 0.00 in Rain Light Rain
4:43 PM 44.6 °F 37.4 °F 42.8 °F 93% 30.19 in 3.0 mi NE 16.1 mph - 0.00 in Rain Light Rain
4:53 PM 44.1 °F 36.8 °F 41.0 °F 89% 30.20 in 1.5 mi NE 16.1 mph - 0.01 in Rain Rain
5:41 PM 42.8 °F 35.4 °F 41.0 °F 93% 30.17 in 2.5 mi NE 15.0 mph - 0.12 in Rain Rain
5:53 PM 43.0 °F 35.1 °F 41.0 °F 93% 30.18 in 4.0 mi NE 17.3 mph - 0.14 in Rain Light Rain
6:53 PM 43.0 °F 34.0 °F 41.0 °F 93% 30.15 in 6.0 mi NE 21.9 mph 31.1 mph 0.01 in Rain Light Rain
7:53 PM 43.0 °F 33.8 °F 42.1 °F 97% 30.13 in 3.0 mi NE 23.0 mph - 0.02 in Rain Light Rain
8:13 PM 44.6 °F 35.5 °F 42.8 °F 93% 30.10 in 8.0 mi NE 25.3 mph - 0.00 in Rain Light Rain
8:53 PM 44.1 °F 35.7 °F 43.0 °F 96% 30.12 in 5.0 mi ENE 20.7 mph 26.5 mph 0.08 in Rain Light Rain
9:24 PM 44.6 °F 36.4 °F 44.6 °F 100% 30.09 in 2.0 mi ENE 20.7 mph - 0.03 in Rain Light Rain
9:38 PM 44.6 °F 36.1 °F 42.8 °F 93% 30.10 in 4.0 mi ENE 21.9 mph - N/A Rain Light Rain
9:53 PM 44.1 °F 35.4 °F 44.1 °F 100% 30.10 in 4.0 mi ENE 21.9 mph - 0.03 in Rain Light Rain
10:33 PM 44.6 °F 36.4 °F 44.6 °F 100% 30.09 in 1.8 mi ENE 20.7 mph - 0.00 in Rain Light Rain
10:44 PM 44.6 °F 36.4 °F 44.6 °F 100% 30.09 in 2.0 mi ENE 20.7 mph - 0.01 in Rain Light Rain
10:53 PM 45.0 °F 37.4 °F 44.1 °F 97% 30.10 in 2.5 mi ENE 18.4 mph - 0.01 in Rain Light Rain
11:06 PM 44.6 °F 36.9 °F 44.6 °F 100% 30.09 in 3.0 mi ENE 18.4 mph - N/A   Overcast
11:36 PM 44.6 °F 36.6 °F 44.6 °F 100% 30.07 in 2.0 mi ENE 19.6 mph - 0.02 in Rain Light Rain
11:53 PM 45.0 °F 37.4 °F 44.1 °F 97% 30.07 in 3.0 mi ENE 18.4 mph - 0.03 in Rain Light Rain